Printer-friendly version
Follow the MPC on Twitter Follow the MPC on Facebook The MPC blog
Minor Planet Center

MPEC 2010-G34 : 2010 GA7

The following Minor Planet Electronic Circular may be linked-to from your own Web pages, but must not otherwise be redistributed electronically.

A form allowing access to any MPEC is at the bottom of this page.


Read MPEC 2010-G33 Read MPEC 2010-G35


M.P.E.C. 2010-G34                                Issued 2010 Apr. 7, 00:08 UT

     The Minor Planet Electronic Circulars contain information on unusual
         minor planets and routine data on comets.  They are published
   on behalf of Commission 20 of the International Astronomical Union by the
          Minor Planet Center, Smithsonian Astrophysical Observatory,
                          Cambridge, MA 02138, U.S.A.

             Prepared using the Tamkin Foundation Computer Network

                              MPC@CFA.HARVARD.EDU
       URL http://www.minorplanetcenter.org/iau/mpc.html  ISSN 1523-6714

                                   2010 GA7

Observations:
     K10G07A* C2010 04 06.40626 13 01 21.54 +23 57 19.8          18.6 V EG034703
     K10G07A  C2010 04 06.41258 13 01 16.93 +23 56 37.6          18.8 V EG034703
     K10G07A  C2010 04 06.42535 13 01 07.71 +23 55 13.1          18.2 V EG034703
     K10G07A  C2010 04 06.45573 13 00 45.75 +23 51 47.7          18.6 V EG034703
     K10G07A  C2010 04 06.45631 13 00 45.36 +23 51 44.5          18.6 V EG034703
     K10G07A  C2010 04 06.45691 13 00 44.96 +23 51 40.7          18.6 V EG034703
     K10G07A  C2010 04 06.45749 13 00 44.53 +23 51 35.4          18.7 V EG034703
     K10G07A  C2010 04 06.47087 13 00 34.96 +23 50 06.9          18.2 R EG034926
     K10G07A  C2010 04 06.47251 13 00 33.80 +23 49 55.8          18.3 R EG034926
     K10G07A  C2010 04 06.47418 13 00 32.60 +23 49 44.7          18.5 R EG034926
     K10G07A  C2010 04 06.50068 13 00 13.68 +23 46 45.0          18.7 V EG034703
     K10G07A  C2010 04 06.50132 13 00 13.24 +23 46 40.5          18.8 V EG034703
     K10G07A  C2010 04 06.50196 13 00 12.74 +23 46 35.9          19.1 V EG034703
     K10G07A  C2010 04 06.50263 13 00 12.27 +23 46 31.5          18.4 V EG034703
     K10G07A KC2010 04 06.80453 12 56 46.57 +23 12 52.4          18.5 C EG034B15
     K10G07A  C2010 04 06.80470 12 56 46.83 +23 12 56.4          18.6 V EG034104
     K10G07A  C2010 04 06.80561 12 56 46.24 +23 12 49.8          18.4 V EG034104
     K10G07A  C2010 04 06.80647 12 56 45.61 +23 12 44.4          18.5 V EG034104
     K10G07A KC2010 04 06.80679 12 56 45.00 +23 12 37.3          18.5 C EG034B15
     K10G07A KC2010 04 06.80705 12 56 45.33 +23 12 42.2                 EG034160
     K10G07A KC2010 04 06.80950 12 56 43.54 +23 12 25.1                 EG034160
     K10G07A KC2010 04 06.80990 12 56 42.83 +23 12 16.9          18.5 C EG034B15
     K10G07A KC2010 04 06.81312 12 56 40.82 +23 12 00.9          18.9 V EG034595
     K10G07A KC2010 04 06.81848 12 56 37.20 +23 11 25.9          18.9 C EG034160
     K10G07A KC2010 04 06.82063 12 56 35.72 +23 11 11.7          18.9 C EG034160
     K10G07A KC2010 04 06.82276 12 56 34.24 +23 10 57.8          18.9 C EG034160
     K10G07A KC2010 04 06.82977 12 56 29.13 +23 10 10.5          18.7 V EG034595
     K10G07A KC2010 04 06.83482 12 56 25.36 +23 09 32.3          18.9 C EG034B15
     K10G07A KC2010 04 06.83781 12 56 23.27 +23 09 12.7          18.8 C EG034B15
     K10G07A KC2010 04 06.84523 12 56 18.06 +23 08 23.2          18.7 C EG034B15
     K10G07A  C2010 04 06.84690 12 56 17.23 +23 08 17.3          18.5 R EG034587
     K10G07A KC2010 04 06.84696 12 56 16.83 +23 08 11.8          18.5 C EG034B15
     K10G07A  C2010 04 06.84808 12 56 16.42 +23 08 09.2                 EG034587
     K10G07A  C2010 04 06.84928 12 56 15.58 +23 08 01.4                 EG034587
     K10G07A KC2010 04 06.84948 12 56 15.07 +23 07 55.5          18.5 C EG034B15
     K10G07A KC2010 04 06.86856 12 56 02.08 +23 05 53.6          18.6 R EG034B04
     K10G07A KC2010 04 06.87071 12 56 00.50 +23 05 39.4          18.6 R EG034143
     K10G07A KC2010 04 06.87767 12 55 55.67 +23 04 53.4          18.5 R EG034B04
     K10G07A KC2010 04 06.88022 12 55 53.81 +23 04 36.2          18.8 R EG034143
     K10G07A  C2010 04 06.88394 12 55 50.92 +23 04 10.3                 EG034046
     K10G07A  C2010 04 06.88524 12 55 50.24 +23 04 01.4                 EG034046
     K10G07A  C2010 04 06.88589 12 55 49.48 +23 03 58.3                 EG034046
     K10G07A KC2010 04 06.88685 12 55 49.21 +23 03 52.5          18.5 R EG034B04
     K10G07A  C2010 04 06.88851 12 55 47.82 +23 03 41.7                 EG034046
     K10G07A  C2010 04 06.88986 12 55 46.88 +23 03 31.6                 EG034046
     K10G07A  C2010 04 06.89571 12 55 42.84 +23 02 57.8          18.9 C EG034157
     K10G07A  C2010 04 06.89819 12 55 41.10 +23 02 41.2          18.6 C EG034157

Observer details:
046 Klet.  Observers M. Honkova, M. Tichy, J. Ticha, M. Kocer.  Measurer
    M. Tichy.  0.57-m f/5.2 reflector + CCD.
104 San Marcello Pistoiese.  Observers L. Tesi, G. Fagioli. F. Dolfi.
    Measurer L. Tesi.  0.60-m f/4 reflector + CCD.
143 Gnosca.  Observer S. Sposetti.  0.40-m f/4 reflector + CCD.
157 Frasso Sabino.  Observers R. Haver, A. Caradossi.  Measurer R. Haver.
    0.37-m f/6.85 Cassegrain + CCD.
160 Castelmartini.  Observer E. Prosperi.  0.35-m f/10 Schmidt-Cassegrain
    + CCD.
587 Sormano.  Observers F. Manca, .. Sicoli, A. Testa.  Measurer F. Manca.
    0.5-m f/6.8 reflector + CCD.
595 Farra d'Isonzo.  Observers M. Spolaor, L. Bittesini, E. Pettarin.
    Measurer E. Pettarin.  0.40-m f/4.5 reflector + CCD.
703 Catalina Sky Survey.  Observer A. Boattini.  Measurers J. D. Ahern,
    E. C. Beshore, A. Boattini, G. J. Garradd, A. R. Gibbs, A. D. Grauer,
    R. E. Hill, R. A. Kowalski, S. M. Larson, R. H. McNaught.  0.68-m Schmidt
    + CCD.
926 Tenagra II Observatory.  Observers P. R. Holvorcem, M. Schwartz.  Measurer
    P. R. Holvorcem.  0.81-m f/7 Ritchey-Chretien + CCD.
B04 OAVdA, Saint-Barthelemy.  Observer A. Carbognani.  0.81-m f/7.9 reflector
    + CCD.
B15 Inastars Observatory, Potsdam (since 2006).  Observer B. Thinius.  0.36-m
    f/5.8 Schmidt-Cassegrain + CCD.

Orbital elements:
2010 GA7                                                 Earth MOID = 0.1617 AU
Epoch 2010 July 23.0 TT = JDT 2455400.5                 MPC
M 234.60376              (2000.0)            P               Q
n   1.13352655     Peri.   25.84312     +0.69668105     -0.69387309
a   0.9109927      Node    21.64736     +0.54224899     +0.34311434
e   0.4014289      Incl.   29.58752     +0.46968238     +0.63309769
P   0.87           H   21.3           G   0.15           U   9
Residuals in seconds of arc
100406 703  0.1+  0.4-    100406 104  0.1+  0.7-    100406 587  0.0   0.1+
100406 703  0.3-  0.3-    100406 104  0.3-  0.5-    100406 587  0.0   0.2+
100406 703  0.0   0.9+    100406 B15  0.1-  0.0     100406 B15  0.3-  0.0
100406 703  0.9-  0.2-    100406 160  1.3+  1.0+    100406 B04  0.3-  0.1-
100406 703  0.5-  0.5+    100406 160  0.3+  0.0     100406 143  0.3-  0.0
100406 703  0.1-  0.7+    100406 B15  0.0   0.1+    100406 B04  0.5-  0.1-
100406 703  0.3-  0.7-    100406 595  0.0   0.6+    100406 143  0.5-  0.3-
100406 926  0.4+  0.1+    100406 160  0.2-  0.1-    100406 046  0.6-  0.2-
100406 926  0.6+  0.1+    100406 160  0.2+  0.2-    100406 046  2.7+  0.4-
100406 926  0.5+  0.2+    100406 160  0.4+  0.0     100406 046  1.5-  0.8+
100406 703  0.1+  0.1+    100406 595  0.1-  0.1-    100406 B04  0.7-  0.3-
100406 703  0.3+  0.1-    100406 B15  0.2-  0.1-    100406 046  1.0+  1.5+
100406 703  0.3-  0.3-    100406 B15  0.1-  0.1+    100406 046  1.1+  0.4+
100406 703  0.2-  0.2-    100406 B15  0.2-  0.4-    100406 157  0.5-  0.0
100406 B15  0.2-  0.2+    100406 587  0.3-  0.4+    100406 157  0.4-  0.2-
100406 104  0.6-  0.1-    100406 B15  0.4-  0.4-

Ephemeris:
2010 GA7                 a,e,i = 0.91, 0.40, 30                  q = 0.5453
Date    TT    R. A. (2000) Decl.     Delta      r     Elong.  Phase     V
2010 04 04    13 31.68   +28 17.0    0.162    1.136   144.8    30.4    18.9
2010 04 14    11 51.23   +10 43.0    0.200    1.178   148.7    26.2    19.3
2010 04 24    11 04.40   -01 01.9    0.276    1.213   133.7    36.8    20.4
2010 05 04    10 44.80   -07 46.6    0.368    1.240   121.2    44.1    21.3
2010 05 14    10 38.49   -12 04.7    0.466    1.259   111.7    48.2    22.0

Timothy B. Spahr             (C) Copyright 2010 MPC           M.P.E.C. 2010-G34

Read MPEC 2010-G33 Read MPEC 2010-G35


MPEC number:

Enter an MPEC number in one of the following forms:

  • 1997-B01 (the full form)
  • J97B01 (the packed version of the full form)
  • B01 (the abbreviated form)

Valid HTML 4.01!